Home > Weather > Pirmasens > Past weeks

Flag for Germany Weather for the Past 2 Weeks in Pirmasens, Rhineland-Palatinate, Germany

Now
42 °F

Light rain. Overcast.


Feels Like: 40 °F
Forecast: 34 / 41 °F
Wind: 5 mph from Southeast

Location: Ramstein

Current Time: Feb 13, 2016 at 9:29:22 PM

Latest Report: Feb 13, 2016 at 8:58 PM


Visibility: N/A

Pressure: 29.04 "Hg

Humidity: 100%

Dew point: 42 °F

Location of PirmasensLocation

Historic Weather in Pirmasens — Graph

°F

Pirmasens Temperature Yesterday

Maximum temperature yesterday: 41 °F (at 1:58 PM)
Minimum temperature yesterday: 32 °F (at 12:01 AM)
Average temperature yesterday: 36 °F

High & Low Weather Summary for the Past Weeks

 TemperatureHumidityPressure
High57 °F (Feb 6, 3:58 PM)100% (Jan 30, 8:00 PM)30.38 "Hg (Jan 30, 8:00 PM)
Low32 °F (Feb 5, 3:58 AM)55% (Feb 6, 3:58 PM)29.04 "Hg (Feb 13, 7:59 PM)
Average43 °F89%29.83 "Hg
* Reported Jan 29 7:58 PM — Feb 13 7:59 PM, Pirmasens, Weather by CustomWeather, © 2016

Note: Actual official high and low records may vary slightly from our data, if they occured in-between our weather recording intervals... More about our weather records

Advertising

Pirmasens Weather History for the Previous 24 Hours

 ConditionsComfort  
Time TempWeatherWind HumidityBarometerVisibility
7:59 PM
Sat, Feb 13
43 °FLight rain. Mostly cloudy.5 mph100%29.04 "HgN/A
6:58 PM41 °FLight rain. Mostly cloudy.2 mph100%29.08 "HgN/A
5:58 PM42 °FRain. Fog.7 mph99%29.09 "HgN/A
4:58 PM41 °FLight rain. Mostly cloudy.5 mph100%29.10 "HgN/A
4:00 PM41 °FLight rain. Mostly cloudy.5 mph100%29.10 "HgN/A
3:59 PM41 °FLight rain. Mostly cloudy.5 mph100%29.10 "HgN/A
2:58 PM41 °FLight rain. Overcast.5 mph98%29.16 "HgN/A
1:58 PM41 °FLight rain. Partly sunny.5 mph98%29.21 "HgN/A
1:00 PM39 °FLight rain. More clouds than sun.3 mph100%29.21 "HgN/A
12:58 PM39 °FDrizzle. Mostly cloudy.3 mph100%29.25 "HgN/A
11:58 AM38 °FLow clouds.No wind97%29.28 "HgN/A
11:00 AM37 °FMostly cloudy.5 mph93%29.27 "HgN/A
10:04 AM37 °FCloudy.2 mph93%29.29 "HgN/A
8:58 AM37 °FLow clouds.5 mph93%29.34 "HgN/A
8:04 AM36 °FLow clouds.No wind100%29.32 "HgN/A
7:58 AM36 °FLow clouds.No wind100%29.36 "HgN/A
6:58 AM35 °FLow clouds.No wind95%29.36 "HgN/A
5:58 AM34 °FOvercast.No wind93%29.36 "HgN/A
4:58 AM36 °FOvercast.No wind87%29.37 "HgN/A
3:58 AM34 °FPassing clouds.No wind97%29.38 "HgN/A
2:58 AM35 °FOvercast.2 mph91%29.37 "HgN/A
1:58 AM32 °FOvercast.No wind98%29.36 "HgN/A
12:58 AM33 °FMostly cloudy.No wind93%29.37 "HgN/A
11:58 PM
Fri, Feb 12
33 °FPassing clouds.No wind91%29.36 "HgN/A
10:58 PM33 °FClear.6 mph91%29.36 "HgN/A
9:58 PM36 °FClear.3 mph91%29.38 "HgN/A
Weather by CustomWeather, © 2016

See weather overviewHow to use our weather pages